Kirksville, MO

11:28 AM CDT on April 26, 2017 (GMT -0500)
Kirksville Regional

Weather History for KIRK - December, 2011

Change the Weather History Date:

Friday, December 23, 2011

  Actual Average Record
Temperature  
Mean Temperature 27 °F 27 °F  
Max Temperature 33 °F 35 °F 64 °F (1933)
Min Temperature 21 °F 19 °F -22 °F (1989)
Degree Days  
Heating Degree Days 38 38  
Month to date heating degree days 709 815  
Since 1 July heating degree days 1821 2036  
Moisture  
Dew Point 18 °F    
Average Humidity 68    
Maximum Humidity 84    
Minimum Humidity 51    
Precipitation  
Precipitation 0.00 in 0.07 in 1.22 in (1941)
Month to date precipitation 2.51 1.41  
Year to date precipitation 37.36 38.97  
Sea Level Pressure  
Sea Level Pressure 30.38 in    
Wind  
Wind Speed 7 mph (WSW)    
Max Wind Speed 15 mph    
Max Gust Speed 21 mph    
Visibility 10 miles    
Events      
T = Trace of Precipitation, MM = Missing Value Source: NWS Daily Summary

Daily Weather History Graph

Daily Weather History Graph

Search for Another Location

Airport or City:

Trip Planner

Search our weather history database for the weather conditions in past years. The results will help you decide how hot, cold, wet, or windy it might be!

Date:

Astronomy

Dec. 23, 2011 Rise Set
Actual Time 7:29 AM CST 4:48 PM CST
Civil Twilight 6:58 AM CST 5:19 PM CST
Nautical Twilight 6:24 AM CST 5:53 PM CST
Astronomical Twilight 5:51 AM CST 6:26 PM CST
Moon 6:19 AM CST (12/23) 3:58 PM CST (12/23)
Length of Visible Light 10h 20m
Length of Day
9h 19m
Waning Crescent, 1% of the Moon is Illuminated
Dec 23
Waning Crescent
Dec 24
New
Jan 1
First Quarter
Jan 9
Full
Jan 16
Last Quarter

Hourly Weather History & Observations

Time (CST) Temp. Windchill Dew Point Humidity Pressure Visibility Wind Dir Wind Speed Gust Speed Precip Events Conditions
12:55 AM 26.1 °F 20.5 °F 19.9 °F 78% 30.42 in 10.0 mi North 4.6 mph - N/A   Overcast
1:55 AM 26.1 °F 19.4 °F 19.9 °F 78% 30.43 in 10.0 mi NNE 5.8 mph - N/A   Overcast
2:44 AM 24.8 °F 20.5 °F 19.4 °F 80% 30.39 in 10.0 mi WNW 3.5 mph - N/A   Overcast
2:55 AM 25.0 °F - 19.9 °F 81% 30.44 in 10.0 mi Calm Calm - N/A   Overcast
3:55 AM 25.0 °F - 19.0 °F 78% 30.43 in 10.0 mi Calm Calm - N/A   Overcast
4:55 AM 24.1 °F - 19.0 °F 81% 30.43 in 10.0 mi Calm Calm - N/A   Overcast
5:55 AM 23.0 °F 14.7 °F 18.0 °F 81% 30.44 in 10.0 mi WSW 6.9 mph - N/A   Overcast
6:55 AM 23.0 °F - 17.1 °F 78% 30.45 in 10.0 mi Calm Calm - N/A   Overcast
7:55 AM 21.9 °F 14.5 °F 17.1 °F 82% 30.45 in 9.0 mi SW 5.8 mph - N/A   Overcast
8:55 AM 21.9 °F 14.5 °F 16.0 °F 78% 30.47 in 9.0 mi WSW 5.8 mph - N/A   Overcast
9:20 AM 23.0 °F 15.8 °F 15.8 °F 74% 30.42 in 9.0 mi SW 5.8 mph - N/A   Partly Cloudy
9:55 AM 24.1 °F 16.0 °F 17.1 °F 75% 30.46 in 9.0 mi SW 6.9 mph - N/A   Partly Cloudy
10:55 AM 26.1 °F 18.4 °F 18.0 °F 71% 30.45 in 10.0 mi SSW 6.9 mph - N/A   Clear
11:55 AM 28.0 °F 18.6 °F 17.1 °F 63% 30.41 in 10.0 mi West 10.4 mph - N/A   Clear
12:55 PM 30.2 °F 24.3 °F 17.6 °F 60% 30.33 in 10.0 mi WSW 5.8 mph - N/A   Clear
1:55 PM 33.8 °F 26.4 °F 17.6 °F 52% 30.29 in 10.0 mi SSW 9.2 mph - N/A   Clear
2:55 PM 33.1 °F 23.9 °F 17.1 °F 52% 30.32 in 10.0 mi SW 12.7 mph 19.6 mph N/A   Clear
3:55 PM 30.9 °F 20.7 °F 18.0 °F 59% 30.31 in 10.0 mi SW 13.8 mph 18.4 mph N/A   Clear
4:55 PM 28.9 °F 20.4 °F 18.0 °F 64% 30.31 in 10.0 mi SW 9.2 mph - N/A   Clear
5:55 PM 28.0 °F 17.0 °F 19.0 °F 69% 30.30 in 10.0 mi SW 13.8 mph - N/A   Clear
6:55 PM 27.0 °F 18.0 °F 18.0 °F 69% 30.32 in 10.0 mi SW 9.2 mph - N/A   Clear
7:55 PM 27.0 °F 20.5 °F 18.0 °F 69% 30.33 in 10.0 mi SW 5.8 mph - N/A   Clear
8:55 PM 26.1 °F 18.4 °F 18.0 °F 71% 30.32 in 10.0 mi SW 6.9 mph - N/A   Clear
9:55 PM 26.1 °F 16.8 °F 19.0 °F 75% 30.32 in 10.0 mi SW 9.2 mph - N/A   Clear
10:55 PM 27.0 °F 17.3 °F 19.0 °F 72% 30.33 in 10.0 mi WSW 10.4 mph - N/A   Clear
11:55 PM 27.0 °F 18.7 °F 19.0 °F 72% 30.33 in 10.0 mi WSW 8.1 mph - N/A   Clear